Theta_e
284 281 282 281 278 280 279 278 278 277 277 276 276 275 277 277 277 276 276 279 277 279 275 275 274 276 281 284 286 286 284 282 282 284 284 285 286 287 287 288 288 289 290 290 289 288 287 287 287 286 285 285 285 285 286 287 288 289 291 291 291 291 292 291 290 290 291 291 289 289 290 292 292 292 291 292 293 292 294 294 294 294 294 294 294 295
283 281 281 278 278 278 280 277 277 278 277 279 276 278 277 277 278 277 280 277 278 282 276 274 279 283 284 285 284 283 282 284 284 285 284 286 286 287 287 288 288 289 288 290 291 291 289 289 288 286 286 289 286 286 285 287 289 288 288 290 291 290 291 292 292 292 292 292 291 291 292 292 292 291 292 293 292 293 294 293 293 294 294 294 294 294
278 283 279 279 278 278 277 278 278 281 278 277 282 277 278 275 276 276 277 275 277 280 279 275 280 283 285 285 284 281 281 282 281 283 285 284 286 288 288 287 288 288 289 290 291 291 291 290 289 285 285 286 286 285 286 286 287 287 288 290 290 290 291 292 292 292 292 291 292 292 290 291 290 289 292 292 292 291 293 293 293 293 293 293 293 293
285 281 280 279 279 280 278 276 278 278 277 278 281 280 278 275 278 276 274 277 278 280 277 276 278 282 281 279 279 279 279 281 281 281 282 283 285 287 288 287 287 287 288 289 289 290 291 290 291 290 289 286 285 286 286 286 286 287 290 288 289 290 290 291 292 295 292 291 291 291 290 289 290 290 290 289 289 290 289 291 292 292 291 292 293 292
280 281 278 278 278 281 280 277 278 275 277 275 278 277 277 280 280 278 276 278 277 278 277 278 277 275 274 284 286 285 279 280 282 282 281 282 284 284 284 285 285 286 287 288 289 290 290 291 291 290 290 287 287 287 286 287 287 289 288 289 289 290 290 290 292 293 291 291 291 290 291 290 290 290 289 289 292 291 291 292 290 292 291 292 293 293
280 279 280 281 279 279 280 281 277 276 278 273 275 278 280 277 279 277 276 278 274 276 278 278 275 273 274 275 277 279 278 280 280 283 285 283 284 283 285 286 287 286 286 287 289 289 289 289 290 290 290 291 290 289 288 287 288 287 288 288 288 289 289 290 289 290 292 292 291 289 289 289 289 290 289 292 293 292 291 293 290 290 292 292 292 293
280 279 281 281 279 278 278 279 279 277 276 278 278 277 275 277 277 277 277 277 275 276 278 276 278 271 274 277 279 277 275 277 280 278 281 282 284 283 284 285 286 286 288 288 287 288 289 290 290 291 291 291 291 292 289 286 286 286 287 287 288 289 289 290 289 290 293 290 290 291 292 291 292 291 292 291 291 291 290 289 290 291 289 290 292 292
281 281 280 279 280 279 279 280 279 275 276 278 278 276 277 278 279 278 277 278 275 275 277 276 272 273 275 277 275 274 277 278 279 282 283 282 281 283 284 285 284 287 286 286 287 288 288 288 288 290 291 290 291 290 289 288 287 287 287 287 287 288 291 289 289 289 292 291 290 290 290 291 291 291 293 290 289 288 288 288 290 288 289 288 289 291
279 280 279 280 277 279 278 275 281 277 279 278 278 279 279 279 277 276 280 278 276 276 275 274 277 276 272 277 275 277 282 283 281 282 283 281 281 282 284 285 285 286 286 285 287 289 289 289 289 289 290 291 290 290 290 290 289 287 286 287 287 287 288 289 288 290 290 292 291 291 291 290 292 292 292 292 290 290 288 289 288 287 288 288 287 288
280 280 279 279 279 277 277 280 277 279 279 280 278 279 278 278 277 277 275 278 274 274 271 276 276 273 273 273 275 275 280 278 279 283 285 284 283 283 284 286 286 285 286 286 286 286 288 288 288 288 288 289 289 289 289 289 289 288 286 288 289 287 286 287 287 290 289 290 291 290 289 290 291 291 291 288 290 289 288 289 290 288 288 288 288 288
281 285 285 281 280 278 278 278 278 279 279 278 280 280 276 274 277 274 273 273 272 269 270 275 274 275 273 276 277 281 281 279 280 280 281 281 282 283 283 284 285 286 286 286 286 286 287 287 287 286 287 288 289 289 288 290 290 288 288 287 288 288 287 287 287 287 288 288 289 291 290 290 290 290 289 289 290 289 287 289 290 288 289 288 288 287
280 281 282 279 283 280 280 280 280 278 279 279 279 280 276 276 272 274 265 268 269 263 267 273 275 274 271 272 273 278 277 276 283 284 286 286 286 286 284 284 284 284 285 285 285 287 287 288 288 287 289 288 288 289 290 289 289 289 288 287 289 289 289 287 287 286 287 287 288 288 289 290 290 290 290 290 290 290 289 289 289 288 287 288 287 285
279 280 280 279 282 281 279 277 279 279 278 279 276 273 274 270 265 269 262 272 265 267 277 274 273 272 274 280 279 275 277 277 278 284 287 286 286 284 284 284 284 284 284 285 285 286 287 286 287 288 288 288 288 288 288 288 288 288 288 287 289 291 288 288 287 288 287 286 287 288 288 288 289 289 289 289 289 289 289 289 289 288 288 287 288 287
275 276 279 281 281 282 278 278 277 278 276 278 279 273 270 267 258 263 253 257 263 270 273 275 272 274 276 279 280 283 285 280 278 280 281 282 284 285 284 283 284 285 284 284 284 284 284 285 287 286 286 286 287 287 287 287 288 288 288 287 288 290 288 287 287 287 288 287 288 287 288 288 288 288 288 289 289 289 289 289 289 288 288 289 288 289
272 277 277 280 280 280 280 278 275 280 276 278 274 277 273 263 267 266 258 270 272 271 272 270 271 270 273 280 281 278 279 277 277 277 278 279 281 281 281 282 284 284 284 282 283 285 286 287 285 286 286 286 286 286 287 286 287 286 288 288 288 289 289 288 287 286 287 287 288 288 288 289 287 289 288 289 290 289 289 289 289 289 289 288 289 289
275 275 276 278 279 278 280 280 277 275 276 277 276 277 274 272 272 272 259 262 261 265 268 269 272 274 279 279 283 278 278 280 279 280 279 280 281 281 284 286 286 285 284 284 284 286 285 285 285 285 285 286 285 286 286 286 286 286 287 286 287 287 287 287 288 287 286 287 286 286 286 288 288 289 288 289 289 289 289 289 289 289 289 289 288 289
272 273 277 277 277 279 279 279 281 279 275 277 277 273 277 274 274 265 264 265 265 263 269 264 275 278 279 279 278 275 280 283 281 281 280 281 283 283 285 287 286 285 283 284 285 285 286 285 285 285 285 285 286 286 286 286 285 285 286 286 287 287 286 287 286 287 286 286 286 286 286 286 286 286 286 288 288 289 288 287 288 288 289 288 288 289
277 274 278 277 278 279 277 278 279 278 279 278 274 274 278 274 271 273 272 262 258 264 269 268 271 274 275 278 278 277 278 280 280 281 281 282 282 284 287 287 286 285 284 284 284 285 285 285 285 285 284 285 286 286 285 286 285 285 285 285 285 285 286 286 286 286 286 286 286 286 287 286 285 286 286 287 287 287 287 287 286 286 287 287 288 286
280 275 274 276 277 279 278 280 278 280 279 278 277 279 279 272 274 269 267 265 265 263 262 268 267 270 274 278 277 278 277 280 280 281 281 284 284 285 286 287 286 284 283 284 285 285 286 285 285 285 285 285 285 286 285 285 284 284 284 284 284 285 285 285 285 284 285 284 285 285 285 284 285 284 284 285 285 284 284 286 286 285 286 285 285 286
278 275 274 276 278 278 277 277 273 276 279 276 278 279 277 274 266 269 270 266 267 265 263 267 265 277 277 275 275 279 276 279 280 281 284 286 286 287 286 287 286 284 284 285 285 286 286 285 285 285 286 288 287 285 285 284 283 284 284 283 283 283 283 284 284 284 284 284 284 285 283 283 283 283 284 283 283 283 283 284 284 284 284 285 284 284
278 276 268 273 274 275 277 275 276 278 276 276 277 271 273 273 276 274 270 271 272 258 259 261 268 274 278 277 278 281 281 280 281 285 286 286 286 286 285 286 286 284 284 284 285 286 286 285 284 284 283 283 283 282 283 283 283 283 283 282 282 283 283 283 283 283 283 283 284 283 283 283 283 283 283 282 282 281 282 282 283 283 283 282 283 282
274 274 273 269 274 273 275 275 275 275 277 278 279 276 279 275 272 271 273 269 264 269 268 259 272 275 283 278 281 282 281 279 279 282 284 284 286 286 285 285 284 285 285 284 285 284 285 285 284 284 283 283 283 284 283 283 282 283 282 282 281 281 282 282 283 282 283 282 282 281 282 282 282 281 282 282 282 282 283 282 282 282 281 282 282 281
280 271 268 270 272 275 276 276 275 275 273 274 277 275 276 275 274 268 267 268 268 268 268 264 264 276 282 279 278 280 280 279 278 278 282 284 284 284 284 284 284 284 285 285 284 284 284 284 284 283 283 283 283 283 283 282 282 282 281 281 281 281 282 281 282 281 281 282 282 282 282 281 281 282 282 282 282 282 282 282 281 280 280 281 281 280
286 274 273 273 268 271 274 271 271 273 275 273 272 269 274 278 277 277 269 270 269 266 268 267 266 277 282 277 278 278 277 277 277 276 280 283 282 282 282 283 283 282 283 283 284 284 284 283 282 282 284 285 285 284 282 282 281 281 281 281 280 281 281 281 281 281 282 281 281 281 281 282 281 282 282 282 281 281 281 281 281 279 280 280 279 281
277 275 275 267 268 268 270 272 273 273 272 271 273 273 275 273 270 267 266 267 272 270 273 271 270 274 281 277 277 277 277 277 279 279 279 281 283 283 283 283 283 282 282 283 284 284 283 283 284 286 285 282 282 281 281 281 281 280 281 280 281 281 281 280 280 280 280 281 281 282 281 282 281 281 281 281 281 281 281 281 280 280 280 280 281 280
278 276 274 271 270 266 267 265 266 270 276 275 274 274 275 277 272 274 274 269 270 269 273 267 268 280 283 279 281 280 277 280 280 279 278 280 283 284 283 284 284 283 284 283 283 283 285 286 283 283 282 281 281 281 281 281 281 280 280 280 280 280 280 281 280 280 281 281 281 281 281 281 281 281 281 281 281 281 280 280 280 280 280 279 280 280
276 273 276 277 278 277 278 270 274 276 274 276 274 274 276 275 277 275 272 268 275 269 273 276 278 281 283 284 282 284 281 281 284 284 283 283 281 282 281 283 284 284 284 283 283 283 282 283 284 284 283 281 281 281 281 280 280 280 280 279 279 279 279 279 279 281 281 281 280 281 281 281 281 280 280 280 280 280 280 280 280 280 280 279 279 280
272 275 277 276 277 281 277 275 275 278 275 274 275 275 275 276 276 277 276 276 276 273 271 278 279 277 282 286 285 283 283 282 281 281 282 282 282 283 284 282 285 283 283 283 283 283 285 286 284 284 283 281 281 280 279 279 279 279 280 279 279 279 279 280 279 280 280 280 280 280 280 280 280 280 280 279 279 279 280 280 280 279 278 279 280 279
275 274 274 275 278 280 277 276 275 276 276 275 275 275 275 276 275 277 279 278 278 276 278 280 278 278 282 285 287 285 284 284 285 285 285 284 282 282 281 282 283 283 284 283 284 284 284 285 285 285 283 281 280 281 280 279 279 279 279 279 279 279 278 279 280 280 280 280 280 279 280 280 279 279 279 279 280 280 280 280 278 279 279 279 279 279
281 274 272 275 274 275 275 274 274 276 275 275 274 275 277 277 277 279 280 279 278 281 282 282 277 278 283 286 288 289 283 283 284 282 281 281 284 285 283 284 285 286 285 285 285 285 285 285 284 283 281 281 280 280 279 279 279 279 279 279 278 278 279 279 279 280 280 280 280 279 279 280 278 279 278 279 279 279 278 279 279 279 279 278 277 277
282 277 280 272 273 275 271 271 272 274 273 275 277 275 276 277 278 278 279 279 277 278 280 280 279 281 287 289 288 289 284 281 281 283 285 285 284 285 285 285 285 285 285 285 285 285 285 284 283 281 281 281 280 280 280 279 279 278 278 279 279 279 278 278 279 279 279 279 279 279 278 279 278 278 279 278 278 278 279 279 278 278 278 277 277 276
281 275 273 271 273 272 270 268 271 269 271 271 273 274 276 274 272 276 277 279 278 279 281 278 277 281 286 288 283 285 283 282 284 285 285 285 284 283 283 284 284 284 284 284 284 284 284 283 283 282 283 282 281 280 279 279 279 278 280 279 279 278 278 279 279 278 278 278 278 279 278 278 278 278 279 278 278 278 277 278 278 277 277 276 276 276
280 277 276 272 274 268 269 268 268 269 270 274 273 278 280 278 279 278 280 279 282 283 279 278 280 287 288 286 282 285 281 281 280 282 283 283 283 283 283 283 284 284 284 284 284 284 284 285 284 284 282 281 281 280 279 279 278 279 279 278 279 278 278 278 279 277 278 278 278 278 278 277 278 278 278 277 277 277 277 277 277 276 276 275 274 275
275 278 275 276 274 267 268 264 266 269 272 274 280 284 284 279 280 279 280 280 281 283 283 286 287 287 285 286 285 285 286 286 284 284 284 286 286 284 283 283 284 285 284 283 284 285 285 283 282 282 282 281 280 280 280 279 279 279 278 278 278 277 278 278 278 277 278 277 277 277 277 277 277 277 276 276 276 276 276 276 276 274 274 274 274 274
276 276 274 272 275 270 269 270 272 272 274 280 280 279 281 284 283 282 283 283 283 283 284 284 285 285 287 288 288 286 284 285 282 284 284 284 285 286 286 286 286 285 285 284 283 283 283 283 282 281 280 280 280 279 279 278 278 278 278 278 277 277 278 277 277 277 277 276 276 276 276 276 276 276 276 275 275 275 275 275 274 275 274 273 273 273
276 278 274 273 271 270 270 267 265 274 277 279 279 279 279 279 279 280 280 282 283 283 283 283 285 287 288 288 288 284 284 284 284 285 286 287 286 287 286 287 287 286 285 285 285 285 283 282 283 283 282 280 279 278 278 278 278 278 278 277 278 277 277 277 277 276 276 276 275 275 275 275 274 274 274 274 274 274 274 274 273 273 273 272 272 272
281 278 276 275 273 275 273 273 278 278 280 281 281 279 280 282 280 281 281 283 285 285 284 283 285 286 287 287 287 283 280 282 284 288 289 288 287 287 288 289 288 287 286 285 285 285 283 282 282 281 280 279 279 279 278 278 278 278 277 277 276 277 277 276 276 275 275 275 275 275 275 274 273 273 273 273 273 273 273 273 272 271 271 272 272 272
280 280 276 277 275 273 270 268 268 270 274 276 282 282 283 284 283 284 282 282 283 285 286 285 284 285 286 286 285 282 283 283 283 288 287 282 282 285 285 285 285 284 283 282 280 280 280 280 280 279 280 279 278 277 277 277 278 277 277 277 276 276 276 275 275 275 275 275 274 274 274 274 273 272 272 272 272 271 271 271 271 271 271 272 271 271
278 277 276 280 274 271 271 270 271 271 276 279 283 284 282 281 283 283 280 281 283 288 288 286 286 286 286 286 282 282 284 280 282 286 289 284 282 281 284 284 282 282 282 282 284 283 281 280 280 279 278 279 279 277 277 278 278 278 277 276 276 276 275 275 274 275 274 274 274 273 273 273 272 272 272 271 271 271 271 271 270 270 271 271 271 271
276 274 276 274 273 269 270 269 274 271 274 280 281 279 280 280 283 284 276 277 282 288 287 286 287 287 286 282 281 282 282 278 283 286 284 282 281 281 283 284 282 281 281 280 280 281 280 279 279 279 279 279 278 276 277 277 278 277 276 276 274 275 274 274 275 275 274 273 273 273 273 272 272 272 271 271 271 271 270 270 270 271 271 271 271 271
274 273 273 276 277 274 277 275 272 274 279 280 279 279 280 282 284 279 278 284 282 282 284 286 287 287 284 281 283 283 285 289 285 283 282 281 282 282 282 282 282 283 282 281 280 280 279 279 280 279 278 277 277 277 277 277 277 276 275 274 275 274 275 275 274 274 273 272 272 272 272 272 271 271 271 270 270 270 270 270 270 270 271 270 271 271
270 270 269 269 272 275 273 273 276 276 278 281 280 282 282 284 276 279 287 285 283 286 282 284 285 284 283 283 283 287 287 283 283 282 282 284 282 282 281 280 281 279 279 279 279 279 279 278 278 277 277 276 276 277 276 277 276 275 273 274 274 274 274 274 273 272 272 272 271 271 271 270 270 270 270 269 270 270 270 270 270 270 270 270 270 270
279 277 274 276 272 267 268 271 270 272 277 285 285 283 283 281 287 288 285 286 284 284 282 283 283 283 282 283 284 286 285 284 282 282 282 282 282 282 281 281 282 281 280 279 278 278 279 278 277 277 276 275 276 276 276 276 275 274 274 274 274 274 273 272 272 272 271 271 270 270 269 269 268 269 268 269 269 270 269 269 269 269 270 270 269 269
283 277 271 273 278 274 273 272 274 279 284 286 289 284 284 288 288 284 285 287 285 283 283 282 283 283 282 284 285 284 283 283 284 282 281 282 282 281 281 281 281 280 279 279 279 278 278 278 277 276 275 275 274 274 274 275 274 273 273 273 273 272 272 272 271 271 270 269 269 268 268 268 268 268 267 268 269 270 269 269 269 269 269 269 269 268
284 281 280 278 281 280 278 280 281 277 279 286 290 289 288 291 287 282 286 286 287 287 283 286 286 283 283 283 284 284 283 283 285 283 283 285 285 283 282 282 281 281 280 280 279 278 278 278 276 275 274 274 273 272 272 273 274 271 272 272 272 272 271 271 270 269 268 268 267 267 266 267 268 267 267 267 268 268 268 268 268 268 267 268 268 268
282 283 282 282 281 284 286 283 282 281 279 283 287 288 287 286 284 285 287 289 288 289 285 287 284 283 282 282 283 282 283 284 283 283 283 283 284 283 281 281 281 279 279 279 278 278 278 277 275 274 273 272 272 271 271 272 272 271 272 272 271 271 270 269 268 268 267 266 266 266 266 267 267 267 267 268 268 267 267 267 267 267 266 267 267 266
282 281 283 281 282 281 280 283 283 285 284 283 286 288 287 287 288 287 287 287 288 288 285 284 286 285 284 281 284 286 287 284 283 284 284 284 284 284 283 282 282 280 279 279 279 277 276 275 274 273 272 271 271 270 270 268 269 270 270 270 270 270 269 268 268 267 266 266 266 266 267 267 267 267 267 267 268 267 267 267 268 268 266 265 265 266
282 282 283 283 282 281 284 282 282 282 281 283 284 285 287 290 290 289 289 289 289 287 286 288 285 284 282 283 284 285 286 285 283 284 284 284 285 285 283 283 281 279 279 280 278 277 276 275 274 272 272 271 271 270 269 268 268 268 268 268 268 267 268 267 267 266 266 265 266 266 266 267 268 267 267 267 267 267 267 267 266 267 267 267 265 265
285 284 280 282 283 285 285 283 283 284 286 286 286 285 289 291 291 291 289 287 286 287 288 287 285 286 284 287 286 284 284 286 285 285 284 284 283 283 283 283 280 279 279 278 277 276 277 275 273 272 272 270 270 269 268 267 267 267 268 269 268 268 268 267 267 266 265 266 266 266 266 265 265 265 266 265 267 267 267 266 266 267 267 268 265 265
283 283 281 281 280 281 282 284 283 283 284 288 288 290 290 290 289 288 287 286 285 286 287 286 286 284 285 286 285 284 285 287 286 283 283 284 284 283 281 280 279 279 278 277 276 275 275 274 273 271 270 270 269 268 267 267 267 267 267 267 267 268 268 267 267 266 265 266 265 265 266 265 265 265 265 265 265 265 267 270 271 271 268 267 271 272
286 287 284 283 283 283 287 284 287 290 290 290 289 289 290 288 286 287 287 287 288 288 287 286 286 287 284 284 284 284 285 286 287 283 283 283 283 282 281 279 279 278 277 275 274 273 273 272 271 270 268 268 268 267 267 267 266 267 267 268 268 268 268 267 267 266 266 266 265 266 265 265 264 264 264 264 264 264 265 264 267 270 271 271 270 272
Wind_Speed
0 3 1 2 2 3 1 2 3 2 4 5 4 3 1 2 6 4 2 3 2 3 2 2 4 6 14 14 14 11 9 5 4 6 6 5 6 7 7 7 8 7 5 7 8 5 5 5 5 4 4 3 3 3 3 4 5 7 8 5 8 6 5 5 6 5 6 6 3 2 5 8 6 7 5 6 7 7 8 8 8 8 8 7 7 7
2 3 0 2 1 3 3 3 5 6 4 1 4 1 2 2 3 1 0 4 6 5 4 3 8 12 12 11 11 7 5 4 4 7 5 7 6 6 6 8 8 8 7 7 8 8 5 6 6 4 2 1 2 3 3 6 7 5 5 7 8 5 6 7 8 8 7 6 6 6 8 7 7 6 6 9 7 9 7 7 7 7 6 7 7 6
4 1 1 1 1 4 4 3 1 1 2 3 1 2 1 1 6 6 1 3 3 3 8 4 9 15 16 12 11 5 4 5 5 3 5 5 8 7 7 6 8 9 9 9 7 7 8 8 5 4 2 0 3 3 3 5 4 5 5 6 5 5 7 7 8 7 7 6 6 6 4 5 4 3 5 5 4 4 6 7 6 6 6 5 6 5
1 0 2 1 4 4 3 3 3 4 4 1 0 2 3 3 4 5 1 4 4 1 4 4 8 14 11 7 7 7 3 4 5 5 8 5 5 6 6 6 7 7 8 8 7 8 8 6 6 5 5 4 3 3 4 3 4 4 5 5 5 5 5 6 7 7 7 4 3 2 0 1 2 2 0 2 4 4 4 6 4 5 4 4 6 5
4 0 1 4 2 1 2 2 2 1 2 1 1 1 1 1 0 2 5 7 3 2 1 6 5 8 3 1 1 1 3 4 4 6 1 2 5 5 6 5 3 5 5 7 8 8 8 10 9 6 6 5 4 4 4 4 4 4 5 5 5 5 5 4 4 6 4 2 1 1 0 1 1 1 1 3 7 5 4 5 5 6 4 5 6 6
0 1 2 1 3 2 2 0 0 2 4 4 3 2 1 1 1 3 5 8 8 1 3 5 6 3 3 5 8 8 7 4 3 3 2 4 5 4 5 6 6 4 3 4 5 5 5 5 7 6 6 7 6 5 4 4 4 4 5 4 4 4 4 5 5 5 4 5 5 4 4 4 4 7 4 8 11 6 6 7 3 4 6 6 6 6
1 0 0 2 3 3 2 1 1 3 2 1 0 1 3 4 2 1 5 4 5 2 2 2 1 8 7 4 4 2 5 6 7 1 3 5 5 5 4 4 5 5 7 6 4 5 7 7 7 7 7 6 6 6 5 4 4 4 4 4 4 5 4 4 4 5 5 5 5 7 7 7 7 8 7 5 4 4 4 4 5 4 4 5 6 5
2 1 4 3 2 2 0 1 3 4 2 2 0 5 4 2 1 0 2 2 3 2 3 3 3 2 8 10 3 4 3 4 4 4 4 4 4 5 5 5 4 5 4 4 5 5 4 4 4 5 6 5 6 6 6 5 3 3 4 3 4 3 4 4 4 5 6 7 6 6 6 7 7 7 10 4 4 2 1 3 5 3 4 4 4 5
1 2 1 2 1 1 3 1 1 0 1 1 3 1 1 1 1 3 1 0 0 1 6 1 1 0 5 9 4 1 2 2 5 5 5 4 5 5 6 6 5 4 4 3 5 6 6 5 5 4 6 6 5 5 6 6 5 4 3 1 1 3 3 2 4 4 5 5 6 7 6 7 7 7 9 6 4 5 3 5 4 4 4 3 4 4
2 0 2 3 3 3 2 0 1 1 1 1 4 4 5 5 4 2 2 2 1 2 6 2 2 2 8 7 5 2 1 6 7 8 8 7 5 5 6 7 6 4 5 4 3 4 5 5 5 4 4 4 5 4 4 4 4 4 3 1 1 3 1 2 3 4 4 5 4 5 5 7 8 5 6 4 7 4 3 6 7 4 5 6 5 5
0 2 2 2 1 1 3 1 0 3 2 4 4 3 3 5 3 2 6 2 2 1 6 2 2 0 4 6 7 4 7 7 6 3 5 5 6 7 6 7 6 5 5 5 5 4 4 5 5 4 4 4 5 5 5 6 6 5 5 3 3 2 1 1 3 3 4 4 4 6 6 7 8 6 5 6 8 5 4 7 7 6 6 4 6 4
0 1 0 0 2 2 3 3 2 1 1 2 1 0 3 1 5 2 3 3 1 5 2 2 1 0 2 6 6 9 4 3 8 8 8 8 7 6 5 4 4 4 4 5 4 5 5 7 5 4 5 6 5 6 8 6 6 6 5 4 4 4 4 1 1 3 4 3 4 5 5 6 7 6 5 7 9 6 6 6 8 5 4 4 5 4
1 3 0 3 2 4 2 4 1 2 1 3 2 4 2 6 6 3 2 2 3 3 1 2 1 2 9 11 10 6 7 6 7 7 10 9 7 6 6 7 5 4 5 4 4 4 4 3 4 5 5 5 6 5 5 6 5 5 5 5 5 5 5 4 2 1 2 3 4 5 5 5 5 5 5 6 7 6 6 6 6 6 6 5 5 5
4 0 1 1 1 0 2 4 1 0 1 3 2 3 3 1 2 2 5 1 5 4 3 1 2 3 6 11 10 14 14 7 6 7 5 5 7 6 6 4 6 6 5 5 4 4 4 4 4 3 3 4 4 5 5 5 5 5 5 5 5 5 4 4 4 2 1 3 3 3 4 5 4 5 5 6 6 6 5 5 6 6 6 6 5 6
2 5 3 3 2 1 0 0 2 1 6 6 1 2 4 5 1 2 2 5 5 3 3 4 2 6 1 3 1 7 6 4 5 6 5 5 7 6 6 7 7 7 5 4 4 4 4 4 3 4 3 3 4 4 4 4 4 4 5 5 5 6 6 5 4 3 2 3 3 3 3 4 3 5 4 5 5 5 5 5 5 5 5 5 6 6
3 5 1 1 1 1 2 1 1 3 4 1 2 4 4 4 5 4 4 2 1 3 5 1 6 4 6 4 8 3 6 7 5 7 4 8 7 5 6 6 6 5 5 4 3 4 4 4 3 3 3 3 3 4 3 4 4 4 4 4 3 3 4 4 4 4 3 3 3 2 3 4 4 4 3 4 5 5 5 5 5 6 5 6 5 6
2 5 2 6 2 1 0 0 0 0 2 2 3 3 2 1 7 7 1 1 1 4 7 1 9 8 8 7 4 7 2 7 4 4 3 6 7 2 5 7 6 6 5 4 4 4 4 3 2 2 2 2 3 3 4 3 2 2 4 4 5 5 4 5 4 4 4 4 4 3 2 3 3 3 4 4 4 4 4 4 4 4 5 4 4 5
3 4 1 1 0 1 1 1 1 1 1 3 1 4 1 1 3 3 2 1 4 2 7 2 4 9 7 9 4 7 5 8 4 6 5 6 3 5 7 7 7 6 5 4 5 5 5 5 5 4 2 1 1 2 3 3 3 2 2 3 4 4 5 5 5 5 4 5 4 4 4 4 3 3 3 3 4 4 3 4 3 3 5 4 4 3
3 5 1 1 0 3 1 0 1 0 0 0 1 1 1 1 1 2 3 2 1 3 5 6 2 8 7 10 5 7 3 6 6 3 3 7 7 8 7 9 8 7 6 5 5 4 5 4 4 2 1 1 0 0 1 2 2 2 3 3 2 4 3 4 4 4 3 3 3 3 3 4 4 3 3 3 3 3 3 4 4 3 4 4 4 3
1 3 4 1 1 0 1 1 5 1 1 0 0 1 0 1 1 3 5 2 4 3 3 7 5 8 7 7 7 8 7 6 6 3 8 11 9 9 7 7 7 6 5 5 4 5 5 4 3 2 1 0 1 2 3 3 2 4 3 3 4 3 3 4 4 4 5 4 4 4 3 3 2 2 3 3 3 3 3 3 3 3 4 4 3 3
2 2 5 1 3 1 2 4 8 9 8 0 1 1 1 0 2 3 1 2 3 4 3 1 6 9 9 7 6 10 8 8 7 9 9 9 9 9 8 8 7 6 6 5 5 5 5 4 2 2 2 2 2 1 2 1 2 2 2 4 4 4 4 5 4 4 4 4 4 4 4 4 4 5 4 4 3 3 3 3 3 3 3 3 3 3
2 1 6 1 0 3 6 1 1 2 1 6 10 9 10 8 3 1 8 2 1 2 4 4 9 9 12 6 10 10 8 6 6 6 7 7 10 10 8 8 8 7 7 6 5 5 5 4 3 3 2 1 0 0 1 2 3 4 4 3 3 4 4 4 5 4 5 4 4 4 4 4 4 3 4 4 4 4 4 4 3 3 3 3 3 2
3 3 4 3 8 6 3 0 1 0 0 0 2 3 5 2 6 4 2 4 1 1 4 3 2 13 6 6 5 8 8 6 6 5 9 8 9 8 9 9 6 7 7 5 5 5 5 4 4 3 3 2 2 2 1 2 3 3 3 3 3 3 4 4 4 4 3 3 4 4 3 3 4 4 4 4 4 5 5 4 4 3 3 3 4 3
4 2 1 5 3 4 2 0 0 1 0 1 1 0 3 6 6 7 4 4 7 2 2 1 2 12 7 2 6 6 6 5 5 6 9 9 6 7 8 7 7 5 6 6 5 5 5 4 3 3 3 2 1 0 2 2 2 3 3 3 3 4 4 4 4 4 3 4 4 3 3 4 4 4 4 5 4 4 4 4 4 3 3 3 3 4
3 3 5 1 3 4 2 2 1 0 1 3 3 5 3 2 5 2 4 0 0 8 9 9 9 9 7 2 4 4 5 6 8 6 8 9 8 7 7 7 6 5 6 5 5 5 4 3 4 5 4 3 1 1 1 2 3 3 4 3 4 4 4 3 3 3 3 3 4 4 4 5 4 4 5 5 4 4 4 4 4 3 4 4 4 4
1 3 6 4 6 5 4 3 4 6 9 4 2 1 4 7 7 5 3 1 4 3 7 4 7 14 9 2 4 5 4 6 6 5 4 8 8 7 5 6 8 6 7 5 5 4 6 5 3 3 4 3 2 1 1 2 2 2 3 3 2 3 4 4 3 3 4 4 4 5 5 4 4 5 5 4 4 4 4 3 4 4 3 3 4 4
2 0 3 7 10 11 11 2 2 3 4 4 3 6 8 4 3 3 5 5 11 5 8 10 12 8 15 14 6 9 4 6 7 5 5 6 7 9 7 8 8 8 7 7 5 4 3 4 6 6 4 3 2 0 1 1 2 2 2 3 3 3 3 3 3 4 4 4 4 4 5 5 5 4 4 4 4 3 3 4 4 4 4 3 4 5
1 1 7 7 7 10 5 4 3 3 1 3 4 5 5 8 8 9 10 11 6 10 7 10 9 4 18 22 14 8 8 7 6 6 8 8 9 8 8 6 8 8 9 7 6 6 8 8 5 5 5 3 1 0 1 1 2 1 1 2 3 3 3 3 3 3 3 3 4 4 5 4 4 4 3 3 3 3 3 4 4 4 3 4 6 5
3 4 3 4 9 10 5 4 3 2 3 4 6 6 9 11 9 13 18 6 10 7 12 8 6 8 15 17 17 10 8 8 10 10 10 9 7 7 6 7 9 10 10 7 9 7 7 7 6 6 5 3 1 1 1 1 1 0 1 1 2 2 2 3 2 3 3 3 4 4 3 3 3 3 3 3 4 4 4 4 3 4 4 5 5 5
2 5 3 2 5 5 2 1 1 6 3 1 5 9 9 13 19 21 16 8 12 12 12 10 1 8 16 19 20 14 3 7 8 5 5 6 10 9 7 9 11 13 12 11 10 9 8 8 6 6 5 3 3 3 3 2 1 0 1 1 1 1 2 1 2 2 3 3 3 3 3 3 3 4 3 4 4 3 3 4 4 5 5 5 4 4
4 5 5 1 0 7 3 1 1 3 5 6 6 5 8 12 11 10 8 9 7 10 14 16 8 16 22 22 14 14 5 5 5 7 11 10 8 9 11 12 13 13 13 11 9 9 8 7 6 5 4 4 4 4 4 3 1 1 0 0 0 1 1 1 2 2 3 3 3 3 3 4 4 3 4 3 3 4 4 4 4 5 5 5 5 6
3 4 2 1 2 6 3 1 1 2 3 7 6 5 9 9 8 7 9 12 8 14 13 5 7 14 21 17 1 7 4 5 10 11 10 9 7 9 10 12 12 13 12 11 9 7 7 7 7 7 6 5 5 4 4 3 2 1 0 0 0 1 1 1 2 3 3 3 3 3 4 3 3 4 4 4 4 4 3 4 6 6 5 6 7 5
6 4 3 2 3 7 3 0 2 1 5 8 9 13 22 14 7 4 7 2 15 14 8 7 14 18 18 7 7 10 6 6 7 9 8 8 9 9 11 12 12 11 11 9 7 8 9 9 9 8 6 5 5 5 4 3 3 2 1 1 0 0 2 3 3 3 3 3 4 4 4 4 4 4 4 4 3 3 4 6 6 6 6 6 4 5
3 5 3 2 4 1 5 4 0 3 14 13 8 13 14 12 17 17 13 16 16 11 13 16 16 12 9 13 14 17 13 11 6 8 8 8 9 10 10 11 12 11 8 6 7 8 7 5 4 5 6 6 5 4 3 3 3 2 1 1 1 2 3 3 3 4 4 4 4 4 4 4 4 4 3 3 3 4 5 6 5 4 3 4 6 7
7 5 4 3 2 2 1 1 5 14 14 1 4 5 3 9 14 21 17 13 16 15 15 14 16 16 19 18 17 10 6 9 5 10 10 11 13 11 10 11 11 10 10 8 6 6 6 6 5 4 4 4 4 4 4 3 3 3 3 2 3 3 3 3 4 4 3 4 3 4 4 4 3 3 3 3 3 4 5 4 5 6 5 6 7 7
7 7 3 0 3 2 1 2 4 12 1 3 2 3 0 5 2 1 8 14 15 15 18 19 23 23 19 19 19 5 3 8 9 11 15 16 13 13 13 15 11 8 8 10 10 8 7 7 9 9 6 4 5 3 3 4 3 4 3 2 3 3 3 3 4 3 3 3 3 3 3 3 3 3 3 3 4 5 5 5 5 6 5 6 6 6
10 4 3 4 2 7 4 8 15 5 13 5 0 2 6 6 8 9 10 9 15 17 15 18 22 19 18 18 17 7 3 3 7 15 9 11 11 14 16 13 8 10 10 7 6 7 5 5 6 6 6 5 4 4 4 3 4 4 4 3 3 3 3 3 4 3 3 3 3 3 3 3 3 3 3 3 5 5 5 6 6 6 3 8 7 8
4 9 4 4 6 6 4 5 5 4 16 5 7 5 6 3 6 1 1 11 3 9 15 18 18 17 19 17 10 1 1 2 8 10 5 2 4 8 8 6 2 3 4 4 3 4 6 5 6 5 8 7 4 3 3 4 5 5 4 3 3 3 3 3 3 2 2 3 3 3 3 3 3 3 3 5 6 5 5 5 5 6 4 7 7 8
2 2 1 10 3 3 3 6 8 9 9 3 10 7 1 4 7 4 2 16 4 11 12 14 15 17 15 12 3 5 2 2 8 9 10 6 6 4 6 6 4 4 6 8 11 10 7 6 7 7 6 6 5 3 3 4 5 5 4 3 3 3 3 3 2 3 2 3 2 3 3 3 3 3 4 6 5 5 6 6 5 3 5 6 7 6
4 0 2 3 6 4 4 4 13 5 4 3 5 3 1 3 4 4 6 10 6 13 7 11 14 13 11 5 6 5 6 5 8 9 4 5 5 3 5 8 5 5 4 4 3 6 8 8 8 6 5 5 4 3 4 4 4 4 4 3 2 3 3 2 2 1 2 2 3 3 4 4 4 5 6 6 5 5 5 3 4 6 7 6 6 7
4 2 3 14 10 6 9 10 5 6 4 6 5 2 2 3 3 4 17 9 2 4 5 8 9 10 4 6 8 6 11 11 6 2 6 2 1 1 1 2 3 5 8 6 7 7 7 4 5 6 4 3 3 3 3 4 5 4 3 3 3 3 2 1 2 3 3 3 4 5 5 5 5 6 5 3 5 5 5 5 6 5 7 7 7 7
1 1 2 2 7 11 7 8 13 6 5 6 1 5 4 4 5 12 8 0 1 1 5 6 7 6 6 9 8 9 7 3 6 4 2 0 1 0 1 4 6 6 5 4 6 7 7 6 6 6 5 3 3 3 3 4 5 3 3 3 4 2 1 3 3 4 4 5 5 5 5 5 4 4 4 3 4 8 7 5 6 6 6 6 7 9
11 8 8 9 3 4 2 5 5 14 2 11 8 2 1 3 12 5 2 1 0 1 5 5 8 5 5 6 8 9 7 7 5 4 3 2 1 2 3 4 8 9 8 7 4 3 8 8 6 5 5 4 4 3 3 5 5 4 3 5 2 1 3 3 4 4 5 5 6 5 5 4 5 4 3 4 5 8 7 5 7 6 6 7 8 8
5 5 3 4 5 6 7 10 10 7 7 9 14 9 8 14 3 3 2 3 1 2 2 3 6 7 6 6 6 7 9 8 8 5 4 4 4 3 2 3 1 4 4 3 5 7 6 8 6 6 5 4 3 3 3 5 6 4 4 3 0 3 3 4 4 5 6 5 5 5 4 4 5 4 4 4 6 7 8 7 7 7 6 6 7 7
9 9 7 6 7 9 9 10 4 3 2 6 9 6 6 14 4 1 1 3 4 5 3 2 2 3 7 8 7 7 5 7 8 5 6 8 7 7 7 8 7 7 7 8 7 6 5 9 8 6 5 3 3 3 3 3 7 5 5 1 2 4 5 5 5 6 6 5 4 5 4 5 6 5 5 4 6 8 7 6 6 8 5 7 7 6
2 3 1 0 5 5 9 4 0 2 3 7 9 9 6 5 5 3 6 9 8 7 5 4 4 3 4 5 5 5 8 6 5 6 7 6 5 5 4 3 3 3 4 5 6 6 7 8 7 7 7 4 3 3 3 3 5 7 4 2 3 4 6 6 7 7 6 5 4 4 4 8 6 6 6 7 7 7 6 7 7 7 5 7 6 5
4 2 2 3 2 1 10 3 7 13 8 8 10 9 7 7 9 5 6 7 8 4 3 6 7 6 5 6 7 8 9 6 6 8 6 5 7 8 8 8 6 6 8 8 8 9 9 8 9 7 6 5 2 3 3 4 3 3 3 4 4 5 5 6 8 7 5 6 5 4 5 7 6 6 6 6 7 7 6 6 6 7 6 6 6 5
7 4 5 5 4 8 11 3 7 4 4 7 7 6 10 12 11 9 9 9 7 6 5 9 4 5 3 4 9 7 10 6 5 8 6 8 9 8 8 8 7 5 3 5 8 7 7 8 7 7 6 5 4 3 3 3 3 2 3 3 5 5 6 7 6 7 6 5 5 5 5 7 7 8 7 6 6 7 6 6 5 6 6 5 5 5
4 6 5 6 9 10 10 8 11 8 11 10 7 9 11 12 12 13 7 5 6 8 12 9 4 7 5 11 7 5 7 11 8 8 7 6 5 6 8 8 7 7 7 8 7 7 8 8 8 6 7 5 4 4 3 3 2 1 3 4 4 6 8 8 6 7 6 5 6 6 5 6 6 6 6 6 7 6 5 5 5 5 3 1 3 4
2 10 2 1 6 10 13 10 4 6 11 6 6 12 13 13 10 10 7 5 6 8 10 9 9 5 9 9 7 6 8 11 8 5 7 8 8 6 5 7 7 8 6 5 6 6 7 6 8 8 7 5 4 4 3 3 2 2 2 3 4 6 10 8 7 7 6 5 6 5 6 6 6 5 5 5 5 5 5 6 7 5 4 3 1 6
12 12 7 10 11 15 13 5 9 11 13 9 4 5 8 5 4 5 7 9 9 9 7 6 8 9 6 10 7 8 10 11 11 3 5 6 5 4 6 9 10 8 8 8 9 7 7 8 7 8 7 6 5 4 4 3 3 3 3 3 3 6 8 7 8 6 6 6 6 6 6 6 6 5 5 5 4 4 4 3 4 7 9 7 5 5
Wind_Direction
334 93 169 202 204 183 209 146 124 130 131 102 82 91 190 249 283 283 284 284 305 300 275 288 294 284 284 281 285 297 330 319 326 309 307 319 327 326 328 326 320 319 301 310 306 302 313 307 300 290 287 274 270 251 236 227 225 217 215 193 219 210 193 180 180 181 179 188 207 238 226 235 224 218 218 230 229 223 229 227 220 220 221 218 218 216
65 72 290 199 191 174 167 137 102 78 39 125 111 70 306 213 291 220 330 332 323 49 287 7 323 290 275 285 283 306 348 306 308 321 319 319 313 315 316 321 321 303 297 331 352 347 357 355 339 335 352 327 275 272 215 226 231 222 213 208 220 188 189 194 193 194 190 190 186 177 203 204 214 214 211 232 226 227 234 231 229 226 225 222 221 219
32 199 181 208 121 94 67 74 43 143 109 42 218 208 335 302 250 292 295 337 305 15 268 2 347 296 292 295 295 277 258 259 256 230 261 286 306 320 324 322 315 333 332 335 338 341 351 347 352 350 356 332 233 284 233 248 250 236 223 226 222 204 192 203 198 185 202 203 216 197 207 182 229 236 227 234 242 224 231 234 230 232 232 227 234 224
12 288 172 123 139 101 55 49 82 71 69 92 348 10 288 270 22 321 303 8 331 37 279 341 324 286 301 297 264 261 219 266 266 259 255 215 261 286 303 304 304 313 327 337 326 321 332 337 339 1 6 336 318 286 279 260 241 244 235 235 228 224 211 204 208 207 215 200 205 246 120 201 194 224 283 298 292 272 273 261 234 240 229 227 235 224
205 167 143 100 125 165 119 33 101 67 288 341 138 142 234 338 331 173 276 327 296 14 43 296 293 304 325 294 298 299 333 312 306 326 312 286 235 264 287 301 235 274 308 315 331 339 348 349 345 328 319 329 339 308 281 263 241 227 234 229 220 222 215 213 209 217 207 186 171 179 45 25 342 313 312 315 277 231 237 260 242 239 202 218 228 223
20 307 137 91 58 76 117 4 197 127 320 324 229 169 186 150 225 328 333 358 10 358 28 39 355 321 306 284 249 283 344 338 326 3 316 301 318 345 342 320 316 304 261 275 306 314 309 313 324 341 349 1 344 331 302 262 249 235 244 228 221 223 220 213 209 195 177 199 197 180 202 248 245 264 252 243 243 233 223 236 221 211 206 211 221 220
159 287 109 164 122 78 78 162 232 136 155 47 245 167 128 119 103 49 345 28 357 353 336 11 91 271 328 298 263 329 329 299 321 341 287 303 300 316 299 305 310 313 330 331 317 326 349 344 349 347 355 346 341 325 324 305 276 260 251 234 216 210 214 210 199 178 174 190 199 205 213 220 221 229 248 238 257 242 238 226 234 231 221 213 215 225
104 28 69 54 87 94 84 291 215 137 104 262 3 129 96 83 56 301 89 110 230 272 304 52 104 215 307 288 268 290 315 307 324 303 293 289 296 293 296 296 305 313 311 302 306 314 322 322 340 332 320 327 327 312 324 325 316 293 276 253 233 218 213 207 186 179 185 192 198 203 218 225 232 224 251 239 236 227 225 246 249 235 243 226 216 227
104 137 144 111 88 116 216 212 129 177 159 228 193 125 106 131 150 123 89 127 209 348 294 344 336 339 256 265 312 330 251 274 273 264 265 277 285 284 293 294 295 299 299 294 313 326 322 319 320 319 325 321 326 343 345 335 322 310 304 291 271 245 230 223 189 182 199 202 198 207 210 231 234 233 247 266 269 272 264 279 264 256 260 250 243 226
315 135 214 154 147 230 227 3 160 266 71 235 137 85 88 73 70 100 101 87 330 51 283 208 10 196 284 276 334 340 292 261 242 235 237 243 259 283 297 299 298 308 317 312 281 284 299 304 303 299 289 324 336 329 330 340 348 347 340 344 321 280 244 236 210 197 200 206 199 204 216 229 248 243 267 277 274 271 281 269 274 262 260 251 244 236
279 295 185 103 187 169 129 26 112 58 81 124 129 80 29 39 46 29 64 89 55 341 257 240 328 144 295 271 224 161 221 198 214 282 273 283 282 273 261 259 278 292 305 307 313 298 288 289 279 304 332 327 339 350 5 9 7 355 0 348 337 300 316 235 212 191 211 202 199 214 218 226 245 252 255 277 275 268 267 259 268 263 259 247 247 239
30 10 72 297 62 103 123 75 29 92 83 114 96 114 36 6 11 55 342 32 96 278 260 259 274 332 203 292 283 240 280 240 173 187 215 226 240 252 270 271 263 272 288 301 303 317 324 333 334 348 357 352 338 355 6 3 1 6 358 358 357 351 350 329 232 186 212 195 213 223 225 232 238 244 248 251 264 264 262 261 270 271 274 264 252 245
292 181 228 3 254 128 157 85 10 30 5 77 70 33 66 279 21 293 15 294 200 199 243 320 248 352 233 231 252 285 261 260 232 203 197 204 225 248 260 260 270 288 295 290 291 310 314 306 309 333 336 349 360 352 347 352 352 359 5 5 12 5 356 347 343 226 229 212 225 220 227 237 245 245 245 251 258 261 261 267 274 282 276 279 283 257
279 263 354 236 71 164 149 150 244 36 7 97 149 135 85 3 36 261 279 234 296 296 271 294 281 264 263 282 243 245 255 223 231 228 234 233 222 222 241 284 303 295 280 268 276 282 269 278 296 299 309 325 330 343 344 345 0 353 4 5 22 352 7 357 0 340 291 255 251 240 236 244 240 249 243 249 253 266 262 262 267 268 269 278 266 275
306 330 263 149 191 50 351 129 181 156 147 205 140 128 186 137 169 271 226 263 245 222 279 284 38 236 63 238 199 222 250 268 243 255 255 251 245 258 280 283 280 284 281 255 270 265 265 278 279 292 304 309 320 331 343 345 359 358 7 6 7 3 0 7 5 360 330 290 275 252 238 243 241 245 251 252 248 259 266 262 262 264 264 256 262 255
210 224 269 328 260 12 177 263 110 96 75 189 175 84 84 236 134 215 204 159 279 351 343 241 211 198 203 269 283 267 285 277 248 254 256 261 247 253 293 279 275 274 272 273 273 282 274 252 276 286 299 309 323 329 333 359 358 9 356 352 1 5 344 356 2 5 346 311 293 270 254 249 237 242 242 254 252 250 238 253 245 257 254 252 253 261
21 274 348 314 86 75 242 109 315 245 182 246 99 202 213 127 96 92 82 64 64 51 252 170 312 283 299 313 302 342 349 289 317 277 210 237 235 247 264 268 266 266 268 267 249 247 268 297 284 254 273 302 335 346 346 330 348 351 357 5 2 360 3 10 359 351 343 334 341 322 298 284 278 260 254 258 270 269 271 257 261 260 268 277 271 276
151 247 320 58 217 6 313 177 318 335 174 89 179 237 177 144 121 130 255 357 60 147 263 58 245 303 17 292 320 340 319 281 293 264 242 234 235 244 246 253 255 255 252 262 269 263 258 259 268 280 266 249 274 290 317 334 337 334 6 21 12 7 8 352 353 353 350 346 344 334 335 329 304 290 285 282 280 287 292 283 272 275 284 274 281 274
124 299 307 281 106 275 19 18 350 258 5 116 187 266 120 213 196 328 91 300 269 267 278 310 291 259 199 257 328 296 280 283 270 269 257 236 236 239 247 259 265 268 278 270 258 265 259 243 243 252 271 287 268 250 279 307 329 357 17 9 30 4 349 334 334 341 339 357 339 325 326 319 327 329 309 301 296 302 295 295 300 295 281 301 296 296
47 193 291 293 137 312 345 111 231 241 354 63 336 23 260 109 182 125 196 181 117 272 43 291 23 273 200 215 205 247 240 247 263 263 229 224 221 227 234 246 254 264 251 249 255 253 249 254 249 250 261 306 331 334 329 338 345 18 359 13 3 351 356 352 0 355 351 345 347 341 342 350 343 332 331 323 320 324 313 296 307 308 317 294 310 308
143 112 253 288 281 351 232 186 219 166 160 51 107 310 343 343 218 103 13 142 188 180 176 212 327 277 256 215 187 239 236 230 209 218 225 220 229 232 232 237 246 246 250 246 235 244 253 258 278 284 261 258 291 290 297 321 348 341 360 8 3 3 351 357 347 352 344 342 346 351 355 346 353 351 353 352 1 353 340 335 333 325 300 319 330 332
90 124 201 321 298 229 235 300 226 192 187 178 168 196 177 127 139 167 263 34 88 123 236 130 254 273 271 166 208 230 244 234 234 225 244 241 233 233 238 245 236 246 248 240 244 240 255 264 273 280 295 286 332 315 339 345 4 17 7 351 351 352 2 350 347 351 338 340 340 352 346 348 348 350 358 9 8 11 5 358 357 333 337 345 322 350
155 143 97 208 201 204 242 283 301 347 119 183 200 244 171 148 104 111 204 259 46 246 101 163 73 268 239 207 209 230 246 237 239 213 241 238 237 241 246 242 245 231 249 248 242 248 248 252 254 261 267 270 263 268 300 357 14 347 338 348 344 356 344 342 328 335 331 339 346 348 342 344 2 355 7 17 8 8 1 355 354 355 358 351 345 356
108 105 116 284 309 306 316 318 88 46 104 341 286 84 124 192 187 178 168 177 142 150 126 18 214 261 284 232 221 246 255 268 263 227 237 254 255 258 251 254 245 255 255 257 261 260 256 255 265 268 244 232 262 323 341 329 348 348 346 342 342 352 341 343 345 338 346 348 351 347 357 11 358 11 13 16 2 3 354 350 357 351 8 6 3 17
134 271 126 359 352 339 342 353 356 352 79 219 211 216 202 75 75 144 106 195 259 214 170 133 239 271 272 285 285 268 281 275 266 246 209 245 259 254 255 253 264 267 284 276 261 254 275 263 228 216 216 230 256 280 314 1 354 348 330 334 346 335 333 340 343 350 351 355 356 1 11 6 4 10 7 6 0 0 356 356 358 7 16 13 28 19
153 185 128 168 206 236 251 274 258 239 218 205 230 175 216 159 140 124 220 120 188 269 141 166 247 252 266 314 297 268 277 291 265 241 227 223 249 264 268 262 265 271 265 269 274 278 246 229 233 250 242 244 239 246 325 331 322 319 312 313 325 341 340 343 347 353 357 5 9 6 8 1 5 6 1 357 358 356 351 354 11 14 22 31 29 30
196 28 177 181 182 211 215 203 247 116 71 193 233 182 198 197 192 110 104 120 210 190 178 231 218 273 300 276 225 264 254 252 262 268 252 249 249 248 250 260 258 259 263 262 252 258 295 271 239 223 227 232 247 235 256 262 288 290 307 315 336 344 336 337 348 351 5 4 13 7 6 360 358 350 351 354 347 348 8 18 16 28 26 17 48 43
66 250 245 216 229 234 174 189 194 163 159 219 143 215 189 177 182 163 171 217 136 103 255 251 232 238 260 273 270 241 254 253 264 262 271 270 256 246 249 255 270 273 262 257 261 250 237 231 229 216 222 236 232 280 269 248 237 258 292 308 326 337 348 349 355 0 7 11 14 13 355 349 334 344 343 342 357 15 22 28 32 33 29 40 46 41
155 198 275 141 250 248 224 221 143 171 220 188 198 161 172 194 169 193 222 195 148 183 219 251 139 193 254 258 269 248 223 235 237 242 240 249 273 271 270 270 267 262 262 256 248 241 232 223 209 212 219 218 191 255 266 276 288 301 318 298 312 328 352 336 2 10 19 20 22 358 339 333 340 348 2 9 22 26 23 29 34 39 46 48 46 44
104 247 215 171 262 291 274 204 189 201 247 216 212 198 187 172 203 207 218 199 191 226 233 257 140 256 263 270 269 275 153 225 244 239 273 279 257 262 272 271 267 266 259 245 239 235 225 216 201 205 197 204 203 221 232 250 252 258 262 299 321 344 337 18 19 38 29 33 3 345 347 348 359 5 8 24 24 20 24 33 37 45 48 45 46 48
161 274 117 171 295 273 294 341 142 211 193 244 238 198 203 211 225 224 232 238 235 280 275 267 299 287 275 260 268 284 245 224 263 261 241 245 256 262 265 266 264 262 261 253 245 238 226 211 204 196 191 207 203 206 206 206 216 235 263 274 323 356 324 25 50 54 48 24 357 353 357 10 5 3 25 9 27 27 34 34 41 50 47 44 43 41
161 260 53 71 271 290 329 35 289 62 194 236 268 256 236 207 198 207 210 216 174 218 236 269 281 259 262 277 233 253 271 206 236 249 255 253 250 253 254 256 258 258 256 251 242 230 216 202 195 194 198 205 202 198 199 203 203 185 216 251 10 323 319 67 66 60 42 21 8 10 10 3 1 20 16 22 23 24 30 46 49 46 44 44 41 35
185 159 182 150 221 258 272 77 2 303 357 275 225 225 225 211 211 244 242 210 209 206 205 216 236 238 249 282 315 280 234 242 244 248 258 266 254 241 242 242 249 254 250 243 231 216 206 195 191 189 194 183 184 185 204 174 160 177 191 150 281 263 77 65 60 55 42 22 22 10 7 4 14 18 22 15 16 26 47 54 52 45 45 47 42 55
135 168 189 163 201 252 298 317 307 25 258 246 210 212 190 183 199 216 223 210 222 175 209 214 237 261 287 278 261 265 276 267 245 249 208 227 249 245 238 241 244 249 256 245 226 213 205 191 183 182 176 176 180 174 154 164 159 157 148 141 89 80 63 67 51 52 39 28 20 11 6 7 15 24 17 13 31 51 56 59 62 61 56 58 52 55
175 178 205 167 195 251 37 41 357 256 255 246 338 346 207 205 198 210 227 219 226 217 237 261 261 257 252 256 261 264 262 279 268 264 260 233 231 236 234 235 236 237 236 229 217 217 206 186 168 160 165 175 164 146 125 130 128 120 88 84 82 59 70 58 61 48 36 34 16 15 13 7 17 24 23 31 48 61 61 61 58 54 45 56 56 56
171 167 172 174 152 54 71 107 221 246 288 284 317 6 162 88 107 100 285 254 244 219 214 231 243 247 252 260 269 261 299 291 295 265 248 249 219 222 226 234 228 218 225 215 200 197 184 181 173 173 172 151 125 121 139 150 143 115 100 83 81 69 66 68 65 52 34 35 18 13 4 8 12 32 37 45 58 62 59 57 54 56 49 67 64 62
167 123 139 216 163 214 186 190 238 346 310 253 102 239 163 182 173 176 246 254 218 219 206 224 238 248 255 260 260 296 314 329 302 292 264 231 232 219 225 231 205 214 214 217 189 184 183 166 151 147 124 122 120 132 150 139 125 116 105 83 70 79 72 72 66 44 33 34 15 5 359 4 23 46 47 53 63 59 53 54 48 43 42 70 61 64
214 176 209 184 243 142 164 276 309 284 259 258 201 238 219 198 147 128 179 277 209 231 208 211 228 235 247 254 267 268 73 21 309 282 283 273 247 230 234 225 170 176 181 153 98 105 117 119 108 108 124 125 118 134 134 134 128 119 107 100 91 89 77 71 60 38 35 25 3 1 358 6 30 58 57 60 59 55 54 54 54 52 33 79 78 69
354 73 132 187 235 93 216 218 236 239 249 180 204 226 245 154 133 142 22 273 188 229 217 191 213 231 233 242 245 112 117 256 258 265 285 314 304 236 201 202 172 178 172 170 156 142 136 131 127 128 116 120 131 146 136 131 126 114 108 109 97 90 80 61 41 29 19 3 2 5 20 19 40 51 56 61 50 51 60 54 57 56 64 73 78 75
158 293 103 260 223 196 154 205 244 218 247 251 237 283 244 204 146 71 289 274 241 217 203 171 211 225 233 211 139 154 154 209 264 261 286 303 276 253 188 179 164 154 146 135 87 125 128 126 112 106 120 136 145 134 126 123 109 107 114 103 97 78 67 43 21 10 26 37 31 32 39 35 48 48 54 61 60 56 55 51 67 66 77 67 71 74
192 246 191 220 221 207 196 249 328 290 269 263 254 201 120 211 107 148 239 253 250 212 197 182 213 226 190 150 163 173 224 210 211 261 310 319 28 49 51 104 136 139 144 138 125 122 116 109 114 127 128 114 108 116 120 116 107 107 103 103 88 71 52 29 49 53 53 55 52 49 44 42 50 57 54 61 83 83 68 55 71 70 72 77 68 71
336 111 306 52 239 214 208 225 245 267 229 181 313 146 197 116 198 229 254 259 148 179 206 199 216 228 170 183 186 212 235 273 298 315 324 242 260 351 91 107 99 77 58 87 121 123 118 109 102 101 86 65 72 96 117 112 106 108 107 94 76 56 33 65 68 68 68 63 61 56 50 47 45 56 63 55 85 80 70 56 66 69 76 74 72 67
185 161 205 198 199 54 118 241 299 266 275 164 128 94 237 157 250 224 242 271 200 273 159 208 217 238 161 228 227 236 270 293 296 294 282 263 269 196 189 167 152 153 146 134 123 126 131 122 114 100 89 62 62 76 102 113 111 111 99 85 67 52 73 78 78 79 78 72 68 61 59 54 57 57 57 69 76 89 82 72 68 61 62 71 70 66
176 161 214 232 175 164 170 202 217 212 159 175 144 200 191 220 207 146 101 315 331 160 190 200 236 213 201 216 237 248 250 261 284 263 276 261 246 255 217 230 163 126 131 122 137 148 128 115 110 101 81 66 65 71 84 122 124 122 108 94 63 95 92 87 87 89 82 76 73 73 64 64 62 59 58 68 83 81 82 71 74 65 59 65 70 68
186 207 171 178 199 173 204 219 241 235 210 225 211 223 213 225 225 175 43 232 290 280 182 164 243 221 196 209 235 243 268 239 237 219 198 224 212 208 203 205 194 182 172 158 149 142 128 133 131 119 99 82 74 78 86 119 135 133 128 158 118 117 113 107 99 92 87 82 80 77 81 71 64 60 60 52 69 79 75 70 71 70 45 67 63 64
311 218 106 92 243 270 277 210 141 298 262 255 253 252 263 288 311 294 264 277 256 242 182 218 221 205 211 198 201 242 222 238 218 234 229 233 222 227 219 206 200 160 136 121 124 137 127 119 118 120 120 102 85 88 90 98 133 134 155 133 118 119 120 116 105 94 92 87 78 77 86 83 71 64 63 65 64 71 71 83 77 82 65 67 67 65
252 158 189 218 287 198 256 201 197 237 231 240 242 266 289 271 257 263 282 248 262 291 251 236 232 234 207 185 207 244 262 241 230 240 228 222 217 215 204 204 197 180 168 159 151 137 132 136 131 133 129 121 99 93 88 90 80 100 115 122 119 119 116 110 106 102 95 88 84 73 74 81 81 72 60 59 65 65 62 61 73 79 73 74 77 72
284 168 192 229 257 221 254 201 234 274 283 255 241 265 273 274 269 249 230 246 253 260 253 260 227 252 170 223 226 228 255 252 222 244 227 223 222 208 201 196 179 166 167 143 145 145 136 143 137 136 131 122 120 99 93 87 89 79 104 115 119 120 109 102 105 105 100 93 88 76 73 79 75 77 70 55 60 64 58 51 60 72 76 83 98 92
208 102 227 185 225 254 274 269 265 285 274 258 238 238 241 250 265 269 255 240 249 256 261 264 212 235 193 243 242 224 256 265 233 233 230 233 233 225 206 183 168 168 152 150 155 152 152 148 133 126 119 116 112 108 99 91 75 72 111 124 129 125 109 106 102 100 95 97 88 81 76 76 70 71 75 71 66 65 74 74 60 78 79 128 145 117
119 231 184 101 263 259 247 246 151 249 264 259 213 235 241 241 241 259 288 280 256 253 258 271 277 229 231 243 243 222 234 261 257 208 233 229 225 214 172 151 148 149 148 138 131 127 117 122 126 127 122 114 111 113 106 88 68 53 85 117 128 123 115 116 108 98 91 90 86 85 79 73 66 60 62 65 63 66 52 42 57 62 98 57 136 144
214 224 175 218 232 246 250 215 197 230 262 256 214 247 246 241 201 234 254 254 260 246 246 248 268 285 256 248 224 214 233 241 258 209 225 232 227 187 168 156 153 156 151 146 131 123 115 116 120 122 119 117 116 109 101 87 64 67 76 110 118 122 120 121 108 99 95 87 80 81 84 82 76 63 66 57 56 48 66 44 23 44 41 36 23 66